SCP
0 0 0 0 0 0 0 0 0 0 0 0 0 0 0 0 0 0 0 0 0 0 0 0 0 0 0 0 0 0 0 0 0 0 0 0 0 0 0 0 0 0 0 0 0 0 0 0 0
0 0 0 0 0 0 0 0 0 0 0 0 0 0 0 0 0 0 0 0 0 0 0 0 0 0 0 0 0 0 0 0 0 0 0 0 0 0 0 0 0 0 0 0 0 0 0 0 0
0 0 0 0 0 0 0 0 0 0 0 0 0 0 0 -0 -0 0 0 0 0 0 0 0 0 0 0 0 0 0 0 0 0 0 0 0 0 0 0 0 0 0 0 0 0 0 0 0 0
0 0 0 0 0 0 0 0 0 0 0 0 0 0 0 0 -0 0 0 0 0 0 0 0 0 0 0 0 0 0 0 0 0 0 0 0 0 0 0 0 0 0 0 0 0 0 0 0 0
0 0 0 0 0 0 0 0 0 0 0 0 0 0 0 0 0 0 0 0 0 0 0 0 0 0 0 0 0 0 0 0 0 0 0 0 0 0 0 0 0 0 0 0 0 0 0 0 0
0 0 0 0 0 0 0 0 0 0 0 0 0 0 0 0 0 0 0 0 0 0 0 0 0 0 0 0 0 0 0 0 0 0 0 0 0 0 0 0 0 0 0 0 0 0 0 0 0
0 0 0 0 0 0 0 0 0 0 0 0 0 0 0 0 0 0 0 0 0 0 0 0 0 0 0 0 0 0 0 0 0 0 0 0 0 0 0 0 0 0 0 0 0 0 0 0 0
0 0 0 0 0 0 0 0 0 0 0 0 0 0 0 0 0 0 0 0 0 0 0 0 0 0 0 0 0 0 0 0 0 0 0 0 0 0 0 0 0 0 0 0 0 0 0 0 0
0 0 0 0 0 0 0 0 0 0 0 0 0 0 0 0 0 0 0 0 0 0 0 0 0 0 0 0 0 0 0 0 0 0 0 0 0 0 0 0 0 0 0 0 0 0 0 0 0
0 0 0 0 0 0 0 0 0 0 0 0 0 0 0 0 0 0 0 0 0 0 0 0 0 0 0 0 0 0 0 0 0 0 0 0 0 0 0 0 0 0 0 0 0 0 0 0 0
0 0 0 0 0 0 0 0 0 0 0 0 0 0 0 0 0 0 0 0 0 0 0 0 0 0 0 0 0 0 0 0 0 0 0 0 0 0 0 0 0 0 0 0 0 0 0 0 0
0 0 0 0 0 0 0 0 0 0 0 0 0 0 0 0 0 0 0 0 0 0 0 0 0 0 0 0 0 0 0 0 0 0 0 0 0 0 0 0 0 0 0 0 0 0 0 0 0
0 0 0 0 0 0 0 0 0 0 0 0 0 0 0 0 0 0 0 0 0 0 0 0 0 0 0 0 0 0 0 0 0 0 0 0 0 0 0 0 0 0 0 0 0 0 0 0 0
0 0 0 0 0 0 0 0 0 0 0 0 0 0 0 0 0 0 0 0 0 0 0 0 0 0 0 0 0 0 0 0 0 0 0 0 0 0 0 0 0 0 0 0 0 0 0 0 0
0 0 0 0 0 0 0 0 0 0 0 0 0 0 0 0 0 0 0 0 0 0 0 0 0 0 0 0 0 0 0 0 0 0 0 0 0 0 0 0 0 0 0 0 0 0 0 0 0
0 0 0 0 0 0 0 0 0 0 0 0 0 0 0 0 0 0 0 0 0 0 0 0 0 0 0 0 0 0 0 0 0 0 0 0 0 0 0 0 0 0 0 0 0 0 0 0 0
0 0 0 0 0 0 0 0 0 0 0 0 0 0 0 0 0 0 0 0 0 0 0 0 0 0 0 0 0 0 0 0 0 0 0 0 0 0 0 0 0 0 0 0 0 0 0 0 0
0 0 0 0 0 0 0 0 0 0 0 0 0 0 0 0 0 0 0 0 0 0 0 0 0 0 0 0 0 0 0 0 0 0 0 0 0 0 0 0 0 0 0 0 0 0 0 0 0
0 0 0 0 0 0 0 0 0 0 0 0 0 0 0 0 0 0 0 0 0 0 0 0 0 0 0 0 0 0 0 0 0 0 0 0 0 0 0 0 0 0 0 0 0 0 0 0 0
0 0 0 0 0 0 0 0 0 0 0 0 0 0 0 0 0 0 0 0 0 0 0 0 0 0 0 0 0 0 0 0 0 0 0 0 0 0 0 0 0 0 0 0 0 0 0 0 0
0 0 0 0 0 0 0 0 0 0 0 0 0 0 0 0 0 0 0 0 0 0 0 0 0 0 0 0 0 0 0 0 0 0 0 0 0 0 0 0 0 0 0 0 0 0 0 0 0
0 0 0 0 0 0 0 0 0 0 0 0 0 0 0 0 0 0 0 0 0 0 0 0 0 0 0 0 0 0 0 0 0 0 0 0 0 0 0 0 0 0 0 0 0 0 0 0 0
0 0 0 0 0 0 0 0 0 0 0 0 0 0 0 0 0 0 0 0 0 0 0 0 0 0 0 0 0 0 0 0 0 0 0 0 0 0 0 0 0 0 0 0 0 0 0 0 0
0 0 0 0 0 0 0 0 0 0 0 0 0 0 0 0 0 0 0 0 0 0 0 0 0 0 0 0 0 0 0 0 0 0 0 0 0 0 0 0 0 0 0 0 0 0 0 0 0
0 0 0 0 0 0 0 0 0 0 0 0 0 0 0 0 0 0 0 0 0 0 0 0 0 0 0 0 0 0 0 0 0 0 0 0 0 0 0 0 0 0 0 0 0 0 0 0 0
0 0 0 0 0 0 0 0 0 0 0 0 0 0 0 0 0 0 0 0 0 0 0 0 0 0 0 0 0 0 0 0 0 0 0 0 0 0 0 0 0 0 0 0 0 0 0 0 0
0 0 0 0 0 0 0 0 0 0 0 0 0 0 0 0 0 0 0 0 0 0 0 0 0 0 0 0 0 0 0 0 0 0 0 0 0 0 0 0 0 0 0 0 0 0 0 0 0
0 0 0 0 0 0 0 0 0 0 0 0 0 0 0 0 0 0 0 0 0 0 0 0 0 0 0 0 0 0 0 0 0 0 0 0 0 0 0 0 0 0 0 0 0 0 0 0 0
0 0 0 0 0 0 0 0 0 0 0 0 0 0 0 0 0 0 0 0 0 0 0 0 0 0 0 0 0 0 0 0 0 0 0 0 0 0 0 0 0 0 0 0 0 0 0 0 0
0 0 0 0 0 0 0 0 0 0 0 0 0 0 0 0 0 0 0 0 0 0 0 0 0 0 0 0 0 0 0 0 0 0 0 0 0 0 0 0 0 0 0 0 0 0 0 0 0
Wind_Speed
11 6 3 5 7 6 1 2 1 1 1 1 1 4 6 5 4 2 2 5 8 7 6 7 10 11 12 12 12 13 14 15 16 16 16 16 16 16 16 16 16 16 16 17 17 18 18 18 18
5 4 5 6 6 2 3 2 2 2 4 4 3 3 3 1 1 4 4 5 8 8 6 7 10 11 12 12 12 12 14 14 15 16 16 16 16 16 16 15 15 15 15 16 17 17 17 17 17
5 4 5 5 4 4 3 2 3 1 3 3 3 2 2 2 3 5 4 8 8 7 6 7 10 11 12 12 12 13 13 14 14 15 15 15 15 15 15 15 15 15 15 16 16 16 17 16 16
4 5 6 5 1 3 3 2 3 3 2 2 4 3 0 1 4 4 8 9 8 6 6 7 10 11 12 12 13 13 13 14 14 14 15 15 15 15 15 15 15 14 14 15 16 15 16 16 15
4 5 4 2 2 3 3 2 3 3 3 2 4 4 1 3 3 8 10 9 9 7 6 7 10 10 11 11 12 13 13 13 14 14 14 14 14 14 14 14 14 14 14 15 15 15 15 14 14
5 5 3 2 3 3 3 2 4 2 2 3 5 4 1 1 6 9 9 8 7 7 6 6 9 10 10 10 11 11 12 13 13 13 13 13 13 14 14 14 14 13 13 14 14 13 13 13 13
4 4 4 4 2 3 3 3 4 4 4 6 6 5 1 2 5 8 8 7 6 6 6 5 6 7 9 10 9 10 11 11 11 12 12 11 11 12 12 12 13 13 13 13 12 12 12 12 12
4 4 3 3 4 5 2 2 2 6 4 3 6 6 5 6 7 8 8 7 7 6 6 5 5 5 5 6 9 10 10 10 10 10 11 10 10 10 10 9 11 12 12 12 11 11 11 11 11
4 4 4 6 6 5 2 1 0 2 5 2 2 2 2 10 12 11 8 8 8 7 6 6 6 5 5 5 7 8 9 10 10 9 11 9 5 5 6 7 9 10 10 11 10 10 10 9 9
4 4 8 5 5 3 2 3 3 3 2 2 2 0 5 12 14 14 12 13 13 12 9 7 7 6 6 5 5 4 4 5 5 5 6 4 4 4 5 7 8 8 8 8 9 9 8 7 4
5 7 5 4 3 2 2 2 2 5 4 7 8 7 10 12 14 14 14 13 13 11 10 9 8 7 6 5 4 3 3 3 4 5 5 5 4 3 3 3 3 4 4 3 4 5 3 3 3
4 5 4 3 2 2 3 2 2 6 8 5 6 10 14 17 17 17 16 14 11 11 12 10 9 8 7 6 5 4 3 3 3 4 5 4 3 3 3 2 2 2 2 2 2 2 3 3 3
5 4 5 5 3 3 2 4 4 6 6 1 4 10 14 17 16 13 11 10 11 12 13 12 11 10 8 6 5 5 5 4 4 4 5 5 4 4 3 2 2 2 2 2 2 2 2 2 3
6 5 4 4 4 3 4 5 3 8 3 3 6 11 13 15 15 11 11 13 14 14 13 12 13 11 9 8 6 6 5 5 5 5 5 6 5 4 4 3 3 3 2 2 2 2 2 2 2
3 3 6 5 5 4 2 8 8 8 4 5 7 9 11 12 11 14 15 15 14 13 12 13 13 12 11 10 9 6 6 5 5 5 6 6 6 6 5 4 4 3 3 3 2 2 2 2 1
4 5 8 6 7 6 6 13 8 6 6 8 8 8 10 11 12 12 12 11 11 10 12 13 11 13 13 10 9 6 6 6 6 5 6 7 7 7 6 5 4 4 3 3 3 2 2 2 2
6 9 9 5 6 6 9 10 7 6 8 9 9 9 10 11 11 12 12 12 12 13 12 13 13 14 13 11 8 7 7 7 6 6 6 7 8 8 6 5 5 5 4 3 3 2 2 2 2
10 8 7 9 5 7 9 11 8 5 7 10 9 9 10 12 16 14 13 12 11 11 12 13 13 13 12 10 7 6 7 7 7 7 8 9 8 9 7 6 6 6 4 4 4 4 3 2 3
7 8 9 7 6 8 12 14 13 9 8 10 10 10 12 14 13 9 10 11 10 11 13 14 15 14 12 10 10 10 10 9 8 8 9 10 10 10 9 7 7 7 6 6 6 4 4 3 3
9 10 9 4 5 7 8 14 13 12 11 12 13 14 14 12 10 9 10 11 14 15 15 15 16 16 15 13 11 8 7 7 8 7 9 11 11 11 10 10 8 8 7 7 7 6 4 3 4
15 15 12 6 1 3 4 11 13 12 11 12 13 13 12 14 14 12 11 13 14 16 17 16 18 17 17 14 7 6 5 4 7 9 10 12 12 12 11 12 10 9 9 8 9 9 8 6 5
19 12 10 8 6 6 7 11 11 11 13 16 17 14 15 14 14 12 11 12 15 17 16 17 18 17 16 16 13 13 13 13 13 10 9 10 12 12 13 12 12 11 9 10 10 10 8 7 6
7 7 10 10 9 8 7 10 11 6 15 17 17 17 17 16 15 15 14 15 15 15 15 16 16 17 16 17 17 17 16 14 8 7 9 11 11 13 13 13 12 12 11 11 10 10 11 9 8
5 5 3 5 8 17 17 13 13 11 16 10 11 15 17 16 15 16 14 12 12 12 13 13 15 17 16 18 19 19 19 16 11 11 12 11 9 10 14 13 13 13 12 12 12 11 12 11 10
10 8 7 10 12 14 11 13 17 10 11 13 13 14 15 15 14 14 13 13 13 13 14 14 16 18 17 18 20 20 21 18 18 15 13 11 10 11 14 14 14 13 13 12 11 11 12 13 12
17 16 12 10 9 5 7 16 14 8 10 10 12 12 12 12 12 13 14 14 13 14 14 15 17 18 17 19 20 19 19 15 13 15 13 12 11 12 11 14 14 14 13 12 12 11 12 10 13
12 16 9 3 2 4 8 9 12 6 8 10 11 11 13 13 12 13 13 13 12 13 14 16 17 17 17 18 18 18 18 17 15 14 13 11 10 9 11 12 14 14 14 13 12 11 13 12 13
9 8 7 10 9 11 8 9 11 9 12 12 13 15 16 13 12 13 12 12 11 11 11 12 14 16 16 16 16 14 17 17 16 13 13 13 12 10 10 12 13 13 13 14 13 12 12 13 13
12 13 10 7 7 8 8 11 11 13 12 14 17 16 15 14 14 13 11 10 9 8 8 10 12 13 12 14 14 14 14 14 14 13 14 13 11 12 12 13 13 13 13 13 13 14 13 15 14
12 14 15 12 9 7 8 13 6 9 10 11 13 13 12 13 11 9 9 7 7 7 8 9 10 11 12 12 12 13 12 11 13 14 13 12 12 12 13 12 12 13 13 13 14 15 15 15 16
Wind_Direction
332 337 29 49 52 51 59 271 222 156 147 64 105 133 146 149 163 179 122 139 131 135 137 133 130 127 124 122 121 121 120 118 115 112 110 108 106 104 103 102 101 100 99 98 97 95 93 91 89
329 350 42 54 78 72 280 259 213 193 153 128 79 91 105 119 100 121 136 145 135 134 130 131 130 131 129 128 125 123 122 120 118 116 114 112 110 108 107 105 104 103 102 101 100 98 96 94 92
349 41 68 68 99 171 222 230 194 112 137 134 99 71 128 165 157 162 161 141 128 127 127 134 133 136 135 133 130 126 124 123 122 119 118 116 114 112 110 109 108 106 105 104 101 100 99 96 94
33 38 53 74 161 217 226 234 175 133 127 107 126 110 36 77 176 167 140 136 129 128 130 139 137 139 139 136 134 131 128 127 126 124 121 119 118 116 114 113 112 109 108 106 104 102 102 100 98
52 66 61 55 244 258 249 228 164 165 167 146 138 141 176 343 122 133 138 138 138 135 134 142 140 141 141 140 138 136 133 130 128 127 124 122 121 120 118 117 115 114 111 108 106 105 105 104 101
50 66 98 213 253 276 269 193 157 170 161 149 144 143 194 39 140 145 141 139 141 142 137 138 141 141 141 141 140 140 137 134 132 131 130 128 127 125 123 121 120 119 116 112 109 108 109 108 104
97 106 171 198 237 269 249 171 173 174 183 196 163 142 218 176 163 143 134 130 133 137 134 133 137 141 142 140 139 139 137 134 134 134 130 127 128 127 124 124 125 125 122 116 112 111 112 112 109
117 114 164 200 205 245 247 179 193 172 188 146 148 157 207 186 150 132 128 136 142 142 141 139 136 135 134 134 138 136 135 133 129 126 122 120 121 121 121 123 128 130 126 120 115 111 111 113 112
95 107 197 207 197 233 230 183 146 126 125 139 206 208 210 140 143 144 149 160 166 165 159 151 146 141 137 135 138 135 132 130 124 122 121 113 107 111 116 125 128 131 129 125 119 113 108 103 105
118 177 215 211 199 217 220 198 179 131 142 193 231 136 126 145 161 169 175 178 180 181 178 170 161 155 147 142 133 130 126 127 124 126 125 118 117 117 119 126 126 126 126 124 120 113 103 95 89
167 197 218 232 224 231 224 234 183 154 206 212 203 180 156 165 175 184 188 187 187 184 182 180 173 165 158 148 147 139 132 132 133 137 135 129 122 117 112 114 116 113 111 102 105 99 98 105 110
189 221 214 232 218 224 223 217 213 198 221 224 203 166 168 177 187 193 194 192 186 185 189 185 179 174 169 161 161 158 154 153 154 154 149 143 139 139 140 136 136 131 124 125 109 107 109 110 117
209 232 228 236 246 254 251 240 237 244 254 273 143 159 181 188 196 199 196 191 190 193 193 189 184 182 176 171 173 173 172 170 166 163 164 159 158 162 160 160 160 161 150 146 138 131 129 125 126
209 225 241 233 231 240 234 258 235 251 231 169 168 185 196 198 198 193 194 196 198 199 196 191 190 187 181 182 184 182 180 174 170 175 177 172 168 170 170 174 179 182 174 164 159 159 150 146 139
170 227 265 240 208 221 210 265 233 238 194 204 208 207 209 212 204 204 203 202 201 200 195 193 193 190 189 190 190 186 184 179 183 185 183 182 179 178 178 181 190 194 180 169 158 155 140 148 151
156 207 240 233 193 197 184 252 248 226 200 220 223 220 221 223 217 217 212 208 201 195 195 195 193 194 195 194 192 189 188 187 191 187 187 190 189 183 182 188 197 189 176 174 173 166 164 177 176
189 218 225 235 203 181 194 243 248 219 202 226 228 224 224 231 231 225 216 211 204 199 195 195 196 196 198 197 194 193 190 195 194 190 193 196 195 190 188 194 196 183 181 186 182 177 172 182 187
190 202 209 211 212 185 214 240 252 243 214 229 233 231 229 231 233 226 218 214 208 201 197 198 199 199 196 195 194 195 200 203 200 198 200 196 198 195 194 197 194 183 185 192 186 185 182 178 169
177 188 213 215 197 193 227 242 247 241 235 240 240 235 233 237 239 230 220 213 206 202 200 200 201 200 195 197 200 203 208 206 206 206 203 200 199 197 198 201 195 191 198 199 189 178 183 188 152
207 213 220 233 203 205 243 253 249 236 230 230 234 236 235 238 242 230 218 210 207 207 206 205 205 202 200 204 203 203 201 204 206 205 206 204 203 200 202 204 202 199 200 200 194 183 179 186 173
215 217 213 205 174 232 280 274 249 245 231 236 236 236 235 231 234 232 221 214 211 211 209 208 207 205 204 202 192 185 186 192 201 208 211 209 206 205 205 205 204 202 202 208 204 195 192 197 197
227 210 198 192 194 229 205 264 254 236 240 236 236 235 237 236 234 231 223 216 213 215 211 210 209 207 203 198 198 196 204 213 215 210 210 204 205 208 208 207 206 206 207 211 207 203 202 194 202
209 167 191 202 212 236 214 248 263 215 240 238 232 232 235 235 231 231 227 221 217 213 210 209 208 208 202 200 203 205 213 220 213 200 203 206 206 208 210 210 209 211 212 213 208 204 205 207 207
155 132 169 205 215 236 223 229 260 212 226 235 229 229 232 232 231 233 232 224 221 212 209 207 206 209 204 203 206 209 214 215 207 205 209 210 209 210 211 212 213 214 214 214 212 210 210 213 214
173 178 208 214 219 235 200 216 249 217 212 217 225 228 229 230 231 233 232 225 221 213 208 205 205 210 206 204 207 211 215 215 215 213 213 210 211 213 213 210 214 216 218 215 211 211 215 214 214
195 195 208 214 216 233 181 223 248 221 220 222 228 232 233 233 230 232 231 227 224 217 209 205 206 210 206 205 209 212 215 215 219 217 214 213 216 217 210 208 214 217 217 215 212 215 219 217 220
188 208 212 229 230 233 226 255 287 243 238 235 237 239 239 237 233 234 234 229 224 218 212 207 207 209 207 206 208 211 212 214 217 215 214 215 216 213 206 206 212 216 216 216 213 219 220 219 222
196 173 176 207 215 233 233 232 240 229 223 228 232 235 239 238 238 237 235 231 226 221 216 209 209 210 209 207 207 209 212 214 217 215 214 215 215 209 204 207 211 214 216 216 216 221 222 223 225
187 194 200 210 210 213 236 246 223 221 215 216 224 229 233 234 235 236 236 233 229 223 213 208 209 210 207 206 207 209 211 212 214 216 218 217 214 210 211 211 212 214 216 216 218 223 221 225 229
198 204 203 217 221 220 241 258 230 216 218 219 229 233 235 237 239 238 237 234 228 221 214 210 208 208 209 205 204 208 210 208 211 217 219 215 215 213 213 212 214 216 218 217 219 223 225 227 229